Location: ???????
(55.4362°N, 38.1183°E)
Time: 02:09:54
(UTC+00:00)

CZ-2D R/B - Pass Details

Date: 17 June 2021
Orbit: 791 x 845 km, 98.7° (Epoch: 26 July)

Event Time Altitude Azimuth Distance (km) Brightness Sun altitude
Rises 22:50:44 0° 18° (NNE) 3,314 7.8 -9.2°
Reaches altitude 10° 22:53:08 10° 24° (NNE) 2,376 6.2 -9.1°
Maximum altitude 22:58:15 52° 100° (E) 987 2.7 -8.9°
Drops below altitude 10° 23:03:19 10° 177° (S) 2,356 4.0 -8.6°
Enters shadow 23:03:43 - 178° (S) 2,514 4.1 -8.6°
